Track STARLINK-2012 now! 10-day predictions STARLINK-2012 is classified as:
1 47635U 21012R 22177.67752948 .00000649 00000-0 62453-4 0 9991 2 47635 53.0619 286.0120 0001355 73.8700 286.2438 15.06408761 77015